Regional Weather Roundup
Issued by NWS

Home | Current Version | Previous Version | Graphics & Text | Print | Product List | Glossary On
Versions: 1 2 3 4 5 6 7 8 9 10 11 12 13 14 15 16 17 18 19 20 21 22 23 24 25 26 27 28 29 30 31 32 33 34 35 36 37 38 39 40 41 42 43 44 45 46 47 48 49 50
987
ASUS45 KBOU 302207
RWRCO

WEATHER ROUNDUP FOR COLORADO
NATIONAL WEATHER SERVICE DENVER/BOULDER CO
400 PM MDT SAT JUL 30 2016

NOTE: "FAIR" INDICATES FEW OR NO CLOUDS BELOW 12000 FEET WITH NO
SIGNIFICANT WEATHER AND/OR OBSTRUCTIONS TO VISIBILITY.

COZ001>005-013-030-031-302300-
...NORTHWEST COLORADO...

CITY           SKY/WX    TMP DP  RH WIND       PRES   REMARKS
CRAIG          FAIR      92  25   9 VRB5G21   30.06F
HAYDEN         FAIR      84  34  16 SW8       30.10F
MEEKER         FAIR      88  32  13 VRB5      30.08F
MOUNT WERNER   NOT AVBL
STEAMBOAT SPGS FAIR      84  33  15 SW6       30.12F
WALDEN         FAIR      79  30  17 E7        30.25S
$$

COZ006>008-011-302300-
...WEST CENTRAL VALLEYS...

CITY           SKY/WX    TMP DP  RH WIND       PRES   REMARKS
GRAND JUNCTION FAIR      93  37  14 MISG      29.97F
MONTROSE       FAIR      89  39  17 NW12      30.10F
EAGLE          SUNNY     90  30  12 W8G16     30.11F
RIFLE          FAIR      95  33  11 W16       30.01F
DELTA          NOT AVBL
NUCLA          NOT AVBL
$$

COZ017>023-064>068-302300-
...SOUTHWEST COLORADO...

CITY           SKY/WX    TMP DP  RH WIND       PRES   REMARKS
DURANGO        PTSUNNY   82  45  27 N16       30.13F
CORTEZ         FAIR      92  43  18 SW7       30.05F
PAGOSA SPRINGS FAIR      83  32  15 N8G20     30.24F
TELLURIDE      PTSUNNY   73  38  27 S13G22    30.36S
WOLF CREEK PAS CLOUDY    50  36  57 NE17G24   30.64F
$$

COZ009-010-012-014-032>034-037-058>063-302300-
...CENTRAL COLORADO...

CITY           SKY/WX    TMP DP  RH WIND       PRES   REMARKS
ASPEN          FAIR      82  32  16 SW8       30.21F
BUENA VISTA    FAIR      75  37  25 S9G21     30.23S
COPPER MTN     PTSUNNY   64  21  19 NW16      30.59F
BERTHOUD PASS  FAIR      55  41  58 N21G32    30.62F
COTTONWOOD PAS FAIR      70  28  21 W7        30.39F
GUNNISON       FAIR      81  37  21 W17       30.25S
KREMMLING      FAIR      82  19   9 NW9       30.17F
LEADVILLE      FAIR      75  21  13 W17G24    30.37F
MONARCH PASS   FAIR      64  30  27 MISG      30.69F
SALIDA         CLOUDY    74  41  30 W25G39    30.27F
SUNLIGHT       FAIR      75  41  29 MISG      30.51F
WILKERSON PASS FAIR      72  23  16 SW6       30.53F
$$

COZ069>075-302300-
...SAN LUIS VALLEY/SANGRE DE CRISTO MOUNTAINS...

CITY           SKY/WX    TMP DP  RH WIND       PRES   REMARKS
ALAMOSA        FAIR      75  41  29 SW18      30.22F
LA VETA PASS   FAIR      73  34  23 S7        30.42F
SAGUACHE       PTSUNNY   77  39  25 W21G29    30.25S
$$

COZ035-036-038>040-302300-
...NORTHERN COLORADO FRONT RANGE...

CITY           SKY/WX    TMP DP  RH WIND       PRES   REMARKS
DENVER INTL AP FAIR      92  41  17 NE13      29.99F
DMNS CITY PARK   N/A     91  43  18 N2G14     29.98F
AURORA         MOSUNNY   92  39  15 NE9       30.01F
FRONT RANGE AP MOSUNNY   93  37  14 N15G21    30.01F
ERIE MUNI ARPT FAIR      91  47  22 E6        29.97F
BOULDER MUN AP FAIR      90  46  22 NE8       29.98F
CENTENNIAL     FAIR      92  35  13 N14       30.02F
BROOMFIELD     MOSUNNY   91  46  21 MISG      30.02F
LONGMONT       NOT AVBL
$$

COZ041-046-047-076>085-087-088-302300-
...PIKES PEAK/PALMER DIVIDE AND SOUTHERN FOOTHILLS...

CITY           SKY/WX    TMP DP  RH WIND       PRES   REMARKS
COLO. SPRINGS  PTSUNNY   85  45  24 E6        30.10R
A. F. ACADEMY  FAIR      80  47  30 SW6       30.10R
SCHRIEVER AFB  NOT AVBL
ELLICOTT       NOT AVBL
FALCON         FAIR      80  46  29 SE12      30.16R
FORT CARSON    NOT AVBL
LIMON          FAIR      93  35  13 N12       30.00F
MONUMENT HILL  FAIR      81  37  21 N3        30.16S
TRINIDAD       NOT AVBL
$$

COZ042>045-048>051-090-091-302300-
...NORTHEAST COLORADO...

CITY           SKY/WX    TMP DP  RH WIND       PRES   REMARKS
GREELEY ARPT   FAIR      88  61  40 S8        29.97F
AKRON          FAIR      86  57  37 E18G24    29.98F
BURLINGTON     FAIR      90  56  31 SE16G24   29.95F
WRAY           NOT AVBL
STERLING       NOT AVBL
HOLYOKE        NOT AVBL
FORT MORGAN    NOT AVBL
$$

COZ086-089-092>099-302300-
...SOUTHEAST COLORADO...

CITY           SKY/WX    TMP DP  RH WIND       PRES   REMARKS
PUEBLO         LGT RAIN  93  37  14 MISG      29.99R
LA JUNTA       FAIR      96  57  27 E10       29.89F
LAMAR          FAIR      97  60  29 NE14      29.85F
SPRINGFIELD      N/A     93  57  29 S23G30    29.94F
$$




USA.gov is the U.S. government's official web portal to all federal, state and local government web resources and services.